Theta_e
341 347 349 342 344 345 347 348 349 348 348 352 345 346 347 340 340 341 342 342 342 343 342 343 345 345 346 345 345 341 346 348 349 349 344 347 349 349 351 350 351 351 350 346
342 343 341 338 339 342 344 345 347 347 341 345 352 352 348 342 342 342 343 343 343 344 343 344 344 346 346 346 343 342 342 349 351 348 348 351 351 349 350 349 351 349 352 348
344 343 341 341 342 344 342 343 343 349 344 343 353 356 350 343 344 344 343 343 343 343 343 344 345 344 345 345 343 341 339 342 345 346 351 354 351 351 351 351 351 353 351 350
340 341 343 342 343 340 339 344 344 348 345 352 345 355 347 349 346 344 345 345 344 344 343 344 345 345 344 345 346 346 345 343 345 346 351 353 353 351 349 350 351 347 354 354
337 343 341 341 341 340 343 340 342 341 344 346 349 347 345 342 346 346 341 343 344 345 344 344 346 346 346 346 347 348 349 347 343 344 347 353 354 351 351 353 352 351 352 355
336 339 339 340 341 341 344 343 345 347 349 345 345 344 344 346 343 346 345 343 343 343 344 343 344 346 346 347 348 350 349 349 345 345 346 346 345 347 351 354 349 350 348 347
335 339 337 338 339 340 339 341 348 349 353 355 344 349 344 343 344 346 348 345 344 345 344 344 344 345 346 349 349 350 350 349 349 348 347 346 346 346 348 352 351 350 352 350
334 335 336 337 336 340 340 338 348 351 353 355 346 352 346 344 346 343 348 349 347 347 347 347 346 345 345 345 349 348 348 348 349 350 343 342 344 344 347 346 348 354 352 351
332 335 336 336 336 338 340 340 336 343 347 351 351 346 340 345 347 349 349 347 340 341 347 347 346 347 346 345 346 347 348 349 350 341 341 342 342 343 344 344 343 348 350 352
329 334 337 336 335 336 336 336 337 336 350 354 344 351 346 340 349 350 349 346 342 342 346 347 345 346 346 346 347 347 349 349 347 344 342 342 342 343 344 346 348 350 350 350
330 335 337 335 335 335 334 333 330 332 334 351 352 351 344 341 348 349 350 348 343 343 346 341 344 345 345 344 344 345 347 347 346 346 344 346 348 343 343 345 348 349 351 349
334 333 335 336 335 333 333 333 333 328 345 340 345 359 345 341 348 349 345 344 343 344 347 343 346 347 348 347 347 346 346 346 347 348 349 348 347 344 343 343 342 346 348 349
333 333 334 334 335 334 335 335 327 326 340 348 352 356 346 351 353 353 353 350 349 348 349 350 351 359 356 352 352 351 347 346 347 349 350 352 353 351 349 348 348 346 346 345
334 334 334 335 337 337 337 336 335 331 344 353 354 353 352 351 354 358 359 360 360 358 358 359 359 360 358 357 354 353 350 352 355 351 353 354 355 355 356 357 356 356 357 357
331 334 335 336 336 335 334 336 336 335 343 344 348 353 348 347 352 351 352 355 356 358 358 357 353 355 356 355 358 357 356 356 354 358 358 359 358 358 359 360 359 360 359 360
332 337 340 338 337 337 338 337 336 339 340 345 346 349 345 346 346 348 351 350 348 350 352 354 358 359 360 360 357 359 360 357 357 358 357 356 359 358 360 359 359 359 358 360
333 335 337 340 338 339 338 337 340 340 342 342 341 345 346 347 346 348 346 346 348 349 352 353 354 354 353 358 358 356 357 357 359 361 359 358 357 356 356 356 355 356 356 355
336 337 339 339 337 342 338 336 342 342 344 343 344 346 341 341 346 347 346 347 348 348 348 347 345 349 350 350 347 348 355 357 357 357 357 358 357 357 355 354 354 352 351 352
332 335 338 339 342 339 336 337 345 345 343 344 344 338 341 340 342 346 347 347 347 344 345 346 347 346 345 348 347 344 354 354 353 353 352 352 351 350 349 349 348 346 348 348
331 334 338 339 342 345 347 342 340 339 345 344 343 344 345 342 345 344 347 348 347 344 343 343 342 343 346 349 346 345 345 343 349 349 344 341 339 345 347 342 340 340 340 341
335 338 337 336 339 341 337 337 339 346 344 344 344 336 341 343 343 345 346 348 346 343 342 345 342 344 346 346 345 340 336 336 337 338 339 339 344 349 343 334 337 342 342 344
343 338 337 337 339 343 342 345 349 343 341 340 338 338 335 340 345 333 348 347 344 342 342 344 343 341 342 343 344 335 335 338 343 346 337 337 347 348 340 340 343 343 343 344
337 339 341 337 345 341 342 346 341 338 337 337 336 335 334 343 346 349 348 345 345 343 342 345 344 344 346 348 347 344 336 337 342 340 339 339 334 334 342 340 339 342 342 343
340 341 345 345 344 341 340 343 341 342 341 339 335 337 338 343 347 349 347 346 345 343 344 344 343 343 342 344 347 345 336 338 347 341 337 340 340 336 338 338 340 341 341 337
341 343 343 345 342 340 340 341 342 344 344 342 340 344 342 345 347 348 347 346 345 343 343 344 345 347 347 348 350 350 350 346 348 345 344 345 345 343 341 342 343 343 343 342
342 343 338 348 344 341 340 340 340 339 340 345 345 347 345 339 349 348 347 346 346 343 343 344 346 350 351 350 350 350 350 351 346 349 348 348 344 341 342 343 343 344 343 343
Wind_Speed
5 1 5 7 4 6 4 5 20 9 5 5 1 5 7 27 27 27 27 28 22 21 27 24 23 19 21 18 14 11 19 12 12 10 4 8 4 4 9 7 8 4 4 4
5 3 10 11 6 11 12 14 18 16 20 10 9 15 10 21 25 31 30 30 26 26 23 21 18 23 25 20 14 14 20 20 17 12 9 6 4 2 7 7 9 4 0 3
8 11 11 7 13 8 20 15 14 21 9 8 17 18 3 14 22 30 34 35 31 24 24 24 24 24 23 22 14 16 16 17 14 13 10 8 4 7 7 6 5 7 4 3
7 10 11 6 11 14 8 18 24 19 5 4 4 3 4 1 5 10 30 32 36 35 32 27 26 29 26 24 17 14 15 14 12 14 14 12 8 5 4 9 12 9 6 6
9 5 6 0 14 9 6 24 20 13 6 2 2 3 6 5 5 6 18 28 27 36 36 32 29 29 28 27 23 17 13 12 12 15 15 13 12 10 7 4 3 7 8 12
7 4 5 8 19 11 16 16 15 8 4 5 2 5 6 5 9 2 15 26 26 38 34 33 29 29 36 33 27 20 18 15 15 14 14 14 12 11 9 6 6 7 6 13
11 4 6 8 4 17 8 6 4 5 7 3 10 3 10 13 9 13 12 17 22 34 34 26 25 31 22 32 31 27 23 20 17 14 14 14 14 12 13 12 9 8 6 5
6 7 10 12 11 9 3 7 6 6 4 2 9 5 7 9 11 23 18 8 13 11 17 3 24 29 27 27 28 25 27 23 19 15 12 12 12 14 15 14 15 12 9 9
3 6 5 6 6 6 3 4 6 9 4 7 6 7 10 5 10 26 27 27 46 38 9 12 6 28 28 25 30 28 27 25 18 13 12 14 14 14 16 13 13 13 16 11
10 5 1 9 10 2 12 9 3 1 8 6 2 5 5 11 6 12 20 35 44 43 12 17 10 9 26 28 21 18 22 23 14 11 15 15 14 13 12 12 13 13 15 19
4 4 5 5 3 9 5 3 8 8 6 6 6 6 7 8 6 10 15 29 37 32 28 20 21 13 18 19 22 20 20 22 17 13 15 14 12 13 14 16 16 17 17 19
2 5 1 7 17 18 10 9 12 5 3 4 6 6 8 18 9 18 21 25 28 32 31 22 25 17 16 20 25 27 26 26 23 20 15 12 13 14 16 16 18 19 19 23
6 3 4 9 5 8 5 8 8 2 4 3 5 7 8 15 16 20 19 19 20 20 19 16 17 15 14 17 11 7 28 28 25 24 20 16 15 15 16 16 15 16 17 18
10 5 7 6 7 3 8 17 18 3 4 3 2 5 4 8 10 16 15 15 15 12 6 6 4 4 3 5 8 9 14 8 13 23 22 19 16 15 15 14 15 15 18 19
5 6 7 5 4 5 11 15 20 3 17 7 10 7 5 1 11 20 18 18 18 16 10 6 5 5 3 3 6 8 11 11 14 16 15 18 14 13 16 19 19 21 21 24
3 1 3 4 13 10 10 14 19 6 16 18 15 4 7 10 13 24 21 21 20 16 11 9 8 11 9 7 7 3 8 10 10 8 11 12 11 18 17 16 18 24 21 17
4 3 3 3 8 5 7 10 13 14 18 19 12 8 9 7 10 18 22 21 20 18 15 12 10 8 2 4 2 3 4 3 7 7 8 11 11 15 18 21 21 25 23 23
4 4 3 2 8 6 7 3 5 18 12 8 10 9 6 7 5 11 23 19 17 13 9 7 7 9 9 4 5 7 5 6 4 1 2 3 5 7 11 9 9 12 12 13
7 5 3 2 3 8 9 7 10 7 7 7 8 10 9 11 7 17 23 19 15 13 13 14 13 10 4 9 9 8 7 7 7 5 4 2 1 0 3 4 5 5 7 8
4 15 6 8 6 8 5 12 33 12 6 7 9 3 5 10 4 6 25 21 16 11 13 11 11 8 8 9 8 5 6 5 4 3 1 0 3 4 3 4 6 6 8 8
3 1 1 2 2 4 13 7 25 5 9 16 15 13 14 6 11 9 13 20 15 16 10 15 15 12 16 12 7 3 5 7 7 6 5 5 6 6 9 8 8 10 12 9
2 4 1 3 1 3 5 10 7 8 29 30 29 29 33 12 17 30 34 21 21 16 13 18 17 14 9 3 2 5 6 7 7 4 5 7 6 5 8 12 12 13 12 12
2 4 3 5 4 3 17 24 35 46 49 39 35 32 40 35 25 23 26 26 19 12 18 20 20 16 11 6 1 3 4 5 5 4 5 5 6 5 7 9 11 10 9 8
7 6 3 6 5 10 17 29 38 33 39 35 42 36 35 40 32 24 29 25 21 17 25 21 17 11 8 6 3 1 3 4 3 1 3 6 9 8 6 9 10 12 13 10
4 3 4 3 7 15 11 15 16 16 14 24 22 2 7 9 16 32 30 28 27 24 22 19 14 9 8 8 4 2 2 2 4 0 1 1 2 3 4 8 11 12 12 10
3 3 4 3 13 15 11 15 14 7 16 21 30 23 36 39 35 34 32 31 29 28 20 16 12 12 8 4 5 3 4 4 4 4 1 5 4 4 5 7 9 10 14 13
Wind_Direction
28 142 197 225 199 264 291 303 297 231 103 58 10 266 213 172 173 172 181 179 185 184 198 197 192 192 185 193 199 189 176 157 182 196 199 196 220 263 251 275 310 334 43 6
17 262 231 135 261 264 275 239 259 97 104 47 326 257 224 183 183 175 177 184 194 193 188 177 179 184 189 194 205 186 184 188 196 202 193 221 221 259 252 258 313 267 84 275
187 232 260 114 255 228 262 249 252 134 112 127 144 257 155 194 198 179 183 188 192 197 187 184 181 185 191 197 198 193 189 189 195 180 191 235 263 225 242 267 267 217 254 241
244 235 228 171 253 247 19 64 66 132 116 164 85 261 273 265 300 195 190 192 185 189 191 185 190 188 196 203 208 190 191 193 190 194 202 211 221 203 227 249 254 242 199 246
268 193 201 293 254 67 86 78 79 76 92 148 100 46 262 349 291 267 188 197 194 184 184 188 192 195 203 210 204 202 199 205 202 193 196 198 210 242 243 250 289 228 207 210
276 240 181 187 251 144 143 82 67 66 22 38 307 88 278 206 214 265 220 196 206 177 185 188 193 201 202 205 201 198 204 213 210 205 203 210 216 179 206 221 260 246 266 230
280 217 240 202 297 151 94 61 33 33 20 38 343 18 247 280 227 208 210 200 202 178 179 190 196 196 177 194 200 205 203 211 216 224 223 219 218 200 198 220 226 235 251 234
239 278 213 252 200 165 149 147 142 126 114 42 315 258 258 309 214 227 151 98 346 67 144 103 226 198 198 195 192 210 213 214 216 223 222 222 220 221 214 220 220 235 241 228
248 277 328 330 3 134 99 184 151 100 75 118 262 299 288 20 61 98 107 142 162 238 271 325 168 209 189 197 197 209 214 213 211 206 217 225 221 218 217 222 216 219 238 249
245 291 129 316 350 235 158 162 99 169 140 184 320 267 241 311 65 113 129 152 175 187 219 266 179 168 195 185 188 191 196 200 210 220 228 236 242 235 226 213 202 208 241 243
204 94 283 24 279 258 279 249 248 155 160 141 176 263 223 245 172 156 161 162 178 188 195 198 228 237 190 208 208 205 212 209 211 224 230 228 240 239 228 228 224 225 234 237
168 146 91 271 274 272 303 285 287 137 338 98 133 16 247 235 133 115 157 169 168 180 188 170 196 201 232 205 214 207 215 216 218 225 231 230 231 234 225 228 235 234 230 242
186 35 21 323 335 335 266 296 297 26 93 300 112 176 160 112 102 106 112 154 181 197 215 224 190 134 144 157 166 189 215 219 224 221 225 231 236 245 252 246 238 245 251 238
150 131 171 197 234 258 297 308 315 79 92 141 109 152 142 120 111 112 121 117 116 128 111 104 113 112 137 174 188 178 162 167 204 219 224 228 238 259 262 266 263 263 266 267
105 143 195 230 244 323 303 300 301 329 157 130 191 124 236 177 133 138 145 143 136 129 124 107 88 68 48 248 233 207 174 178 183 177 194 216 230 245 247 247 254 263 262 264
146 28 10 44 331 341 328 303 307 78 124 108 127 123 226 195 179 149 161 139 126 125 130 117 99 94 82 56 55 163 176 184 196 190 216 232 220 227 232 239 245 247 250 254
71 110 42 301 314 12 337 2 345 95 128 132 141 194 178 151 106 141 135 136 130 126 127 125 122 123 118 140 116 103 103 134 198 187 197 230 247 247 256 259 263 261 263 271
124 93 67 331 19 357 248 272 359 98 75 72 113 140 138 64 128 170 146 146 140 143 152 146 112 115 111 97 65 92 104 117 134 93 302 272 267 264 268 281 284 287 288 293
138 79 56 126 49 289 314 321 137 122 38 33 116 105 69 44 9 160 155 156 151 146 144 131 131 150 99 105 90 78 118 114 113 112 136 137 200 345 12 17 353 339 330 337
237 138 151 159 152 205 190 253 106 37 20 341 107 73 141 115 78 326 152 156 161 164 167 165 131 135 112 128 119 63 81 143 183 199 218 93 76 74 44 1 358 10 9 360
239 72 217 316 292 106 211 142 171 105 205 205 173 152 178 138 120 308 286 155 163 165 163 167 144 143 152 136 151 80 91 95 89 83 77 72 90 56 37 26 29 34 27 29
124 123 238 313 190 143 21 44 114 180 142 158 169 203 205 178 145 201 234 157 159 154 158 157 155 146 154 155 96 109 108 105 105 93 81 88 86 40 32 58 54 32 27 28
64 136 171 169 167 174 88 122 143 153 156 176 188 182 190 166 169 182 159 155 158 180 180 169 158 152 137 152 169 86 125 110 108 88 78 70 54 80 77 51 43 22 13 29
345 61 99 82 20 80 73 133 159 170 176 174 178 166 166 171 181 185 163 165 165 172 156 160 159 162 159 176 173 1 155 146 131 49 73 83 70 58 48 41 26 20 17 20
228 64 103 126 115 111 94 110 128 164 140 159 143 278 316 220 213 172 175 179 176 171 153 150 141 143 147 149 153 190 302 296 185 275 94 83 344 353 34 14 6 359 345 340
14 180 140 203 127 114 118 122 130 89 112 125 144 142 201 205 224 188 186 187 171 159 153 143 141 138 143 143 163 206 236 281 225 205 313 287 302 309 307 344 349 339 339 342